| time (UTC) | temp F | wind direction | speed knots | gust knots | rain 1hr in | rain 24hr in | rain mn in | humidity % | barometer mb |
| 20260506084545 | 55 | 290 | 1.7 | 3.5 | 0.00 | 0.11 | 0.00 | 88 | 1017.4 |
| 20260506084037 | 55 | 277 | 0.9 | 3.5 | 0.00 | 0.11 | 0.00 | 88 | 1017.5 |
| 20260506083539 | 55 | 0 | 0.9 | 3.5 | 0.00 | 0.11 | 0.00 | 88 | 1017.5 |
| 20260506083052 | 56 | 286 | 1.7 | 3.5 | 0.00 | 0.11 | 0.00 | 88 | 1017.5 |
| 20260506082540 | 56 | 289 | 0.9 | 3.5 | 0.00 | 0.11 | 0.00 | 88 | 1017.6 |
| 20260506082038 | 56 | 280 | 0.9 | 3.5 | 0.00 | 0.11 | 0.00 | 88 | 1017.5 |
| 20260506081552 | 56 | 265 | 0.0 | 3.5 | 0.00 | 0.11 | 0.00 | 88 | 1017.6 |
| 20260506081040 | 56 | 279 | 0.9 | 3.5 | 0.00 | 0.11 | 0.00 | 88 | 1017.6 |
| 20260506080538 | 56 | 285 | 0.9 | 3.5 | 0.00 | 0.11 | 0.00 | 88 | 1017.6 |
| 20260506073053 | 56 | 327 | 0.0 | 3.5 | 0.00 | 0.13 | 0.00 | 88 | 1017.3 |
| 20260506072538 | 56 | 280 | 0.9 | 3.5 | 0.00 | 0.13 | 0.00 | 87 | 1017.4 |
| 20260506072037 | 56 | 283 | 1.7 | 3.5 | 0.00 | 0.13 | 0.00 | 87 | 1017.3 |
| 20260506071544 | 56 | 289 | 0.9 | 3.5 | 0.00 | 0.13 | 0.00 | 87 | 1017.3 |
| 20260506071038 | 56 | 295 | 0.9 | 4.3 | 0.00 | 0.13 | 0.00 | 87 | 1017.3 |
| 20260506070538 | 56 | 0 | 0.9 | 5.2 | 0.00 | 0.13 | 0.00 | 87 | 1017.3 |
| 20260506062038 | 56 | 278 | 0.9 | 2.6 | 0.00 | 0.14 | 0.13 | 87 | 1017.0 |
| 20260506061556 | 56 | 261 | 0.0 | 3.5 | 0.00 | 0.14 | 0.13 | 87 | 1017.1 |
| 20260506061041 | 56 | 261 | 0.9 | 3.5 | 0.00 | 0.14 | 0.13 | 88 | 1017.0 |
| 20260506060538 | 56 | 0 | 0.9 | 3.5 | 0.00 | 0.14 | 0.13 | 88 | 1017.0 |
| 20260506051042 | 56 | 279 | 0.9 | 3.5 | 0.00 | 0.16 | 0.13 | 90 | 1016.8 |
| 20260506050538 | 56 | 244 | 0.9 | 3.5 | 0.00 | 0.16 | 0.13 | 90 | 1016.7 |
| 20260506045040 | 56 | 237 | 0.0 | 3.5 | 0.00 | 0.16 | 0.13 | 90 | 1016.7 |
| 20260506044552 | 56 | 237 | 0.9 | 3.5 | 0.00 | 0.16 | 0.13 | 90 | 1016.6 |
| 20260506044037 | 56 | 225 | 0.9 | 3.5 | 0.00 | 0.16 | 0.13 | 90 | 1016.6 |
| 20260506043538 | 56 | 225 | 0.9 | 3.5 | 0.00 | 0.16 | 0.13 | 90 | 1016.6 |
| 20260506043043 | 56 | 240 | 0.9 | 2.6 | 0.00 | 0.16 | 0.13 | 90 | 1016.5 |
| 20260506042537 | 56 | 245 | 0.9 | 3.5 | 0.00 | 0.16 | 0.13 | 90 | 1016.4 |
| 20260506042039 | 56 | 242 | 0.9 | 3.5 | 0.00 | 0.16 | 0.13 | 90 | 1016.4 |
| 20260506041545 | 56 | 242 | 0.9 | 3.5 | 0.00 | 0.16 | 0.13 | 90 | 1016.2 |
| 20260506041037 | 56 | 242 | 0.9 | 3.5 | 0.00 | 0.16 | 0.13 | 90 | 1016.2 |
| 20260506040537 | 56 | 223 | 1.7 | 3.5 | 0.00 | 0.16 | 0.13 | 90 | 1016.1 |
| 20260506040051 | 56 | 240 | 0.9 | 3.5 | 0.00 | 0.16 | 0.13 | 90 | 1016.0 |
| 20260506035538 | 56 | 240 | 1.7 | 3.5 | 0.00 | 0.16 | 0.13 | 90 | 1015.9 |
| 20260506035036 | 56 | 0 | 0.9 | 2.6 | 0.00 | 0.16 | 0.13 | 90 | 1015.9 |
| 20260506034547 | 56 | 216 | 0.9 | 3.5 | 0.00 | 0.16 | 0.13 | 90 | 1015.8 |
| 20260506034036 | 56 | 228 | 0.9 | 3.5 | 0.00 | 0.16 | 0.13 | 90 | 1015.7 |
| 20260506033537 | 56 | 238 | 0.9 | 2.6 | 0.00 | 0.16 | 0.13 | 90 | 1015.6 |
| 20260506033045 | 56 | 238 | 0.9 | 3.5 | 0.00 | 0.16 | 0.13 | 90 | 1015.6 |
| 20260506032538 | 56 | 238 | 0.9 | 3.5 | 0.00 | 0.16 | 0.13 | 90 | 1015.5 |
| 20260506032040 | 56 | 224 | 0.9 | 3.5 | 0.00 | 0.16 | 0.13 | 89 | 1015.4 |
| 20260506031544 | 56 | 244 | 1.7 | 3.5 | 0.00 | 0.16 | 0.13 | 89 | 1015.5 |
| 20260506031038 | 56 | 243 | 1.7 | 3.5 | 0.00 | 0.16 | 0.13 | 89 | 1015.3 |
| 20260506030539 | 56 | 225 | 1.7 | 3.5 | 0.00 | 0.16 | 0.13 | 89 | 1015.4 |
| 20260506030044 | 56 | 232 | 1.7 | 3.5 | 0.00 | 0.16 | 0.13 | 89 | 1015.3 |
| 20260506025538 | 56 | 224 | 1.7 | 3.5 | 0.00 | 0.16 | 0.13 | 89 | 1015.3 |
| 20260506025037 | 56 | 231 | 1.7 | 3.5 | 0.00 | 0.16 | 0.13 | 89 | 1015.3 |
| 20260506024545 | 56 | 232 | 1.7 | 3.5 | 0.00 | 0.16 | 0.13 | 88 | 1015.2 |
| 20260506024037 | 56 | 244 | 1.7 | 4.3 | 0.00 | 0.16 | 0.13 | 88 | 1015.2 |
| 20260506023538 | 56 | 214 | 1.7 | 4.3 | 0.00 | 0.16 | 0.13 | 88 | 1015.2 |
| 20260506023053 | 56 | 219 | 1.7 | 4.3 | 0.00 | 0.16 | 0.13 | 88 | 1015.1 |
| 20260506022537 | 56 | 218 | 2.6 | 6.1 | 0.00 | 0.16 | 0.13 | 88 | 1015.1 |
| 20260506022038 | 56 | 240 | 2.6 | 6.1 | 0.00 | 0.16 | 0.13 | 88 | 1015.0 |
| 20260506021555 | 56 | 252 | 2.6 | 6.1 | 0.00 | 0.16 | 0.13 | 88 | 1015.0 |
| 20260506021041 | 56 | 235 | 2.6 | 6.1 | 0.00 | 0.16 | 0.13 | 88 | 1015.1 |
| 20260506020539 | 56 | 236 | 2.6 | 6.1 | 0.00 | 0.16 | 0.13 | 88 | 1015.0 |
| 20260506020047 | 56 | 232 | 1.7 | 4.3 | 0.00 | 0.16 | 0.13 | 87 | 1015.1 |
| 20260506015538 | 56 | 239 | 1.7 | 6.1 | 0.00 | 0.16 | 0.13 | 87 | 1015.1 |
| 20260506015039 | 56 | 254 | 2.6 | 6.1 | 0.00 | 0.16 | 0.13 | 87 | 1015.1 |
| 20260506014552 | 56 | 246 | 2.6 | 6.1 | 0.00 | 0.16 | 0.13 | 87 | 1015.0 |
| 20260506014037 | 57 | 228 | 2.6 | 6.1 | 0.00 | 0.16 | 0.13 | 87 | 1015.0 |
| 20260506013537 | 57 | 225 | 2.6 | 5.2 | 0.00 | 0.16 | 0.13 | 87 | 1015.2 |
| 20260506013043 | 57 | 245 | 1.7 | 4.3 | 0.00 | 0.16 | 0.13 | 86 | 1015.1 |
| 20260506012537 | 57 | 234 | 1.7 | 5.2 | 0.00 | 0.16 | 0.13 | 87 | 1015.1 |
| 20260506012039 | 57 | 236 | 2.6 | 6.1 | 0.00 | 0.16 | 0.13 | 86 | 1015.1 |
| 20260506011552 | 57 | 250 | 2.6 | 6.1 | 0.00 | 0.16 | 0.13 | 86 | 1015.0 |
| 20260506011037 | 58 | 229 | 1.7 | 5.2 | 0.00 | 0.16 | 0.13 | 86 | 1015.0 |
| 20260506010537 | 58 | 216 | 1.7 | 5.2 | 0.00 | 0.16 | 0.13 | 85 | 1015.0 |
| 20260506005537 | 58 | 229 | 2.6 | 5.2 | 0.00 | 0.16 | 0.13 | 85 | 1015.0 |
| 20260506005037 | 58 | 250 | 1.7 | 5.2 | 0.00 | 0.16 | 0.13 | 85 | 1015.0 |
| 20260506004550 | 59 | 240 | 1.7 | 6.1 | 0.00 | 0.16 | 0.13 | 84 | 1014.9 |
| 20260506004038 | 58 | 232 | 1.7 | 6.1 | 0.00 | 0.16 | 0.13 | 85 | 1014.9 |
| 20260506003537 | 58 | 244 | 2.6 | 6.1 | 0.00 | 0.16 | 0.13 | 84 | 1014.8 |
| 20260506003044 | 59 | 221 | 1.7 | 6.1 | 0.00 | 0.16 | 0.13 | 83 | 1014.7 |
| 20260506002538 | 59 | 255 | 1.7 | 6.1 | 0.00 | 0.16 | 0.13 | 84 | 1014.7 |
| 20260506002038 | 58 | 240 | 2.6 | 6.1 | 0.00 | 0.16 | 0.13 | 84 | 1014.7 |
| 20260506001553 | 58 | 253 | 3.5 | 7.0 | 0.00 | 0.16 | 0.13 | 84 | 1014.7 |
| 20260506001038 | 58 | 225 | 2.6 | 7.0 | 0.00 | 0.16 | 0.13 | 85 | 1014.7 |
| 20260506000539 | 58 | 236 | 1.7 | 6.1 | 0.00 | 0.16 | 0.13 | 84 | 1014.7 |
| 20260506000052 | 59 | 242 | 2.6 | 6.1 | 0.00 | 0.16 | 0.13 | 84 | 1014.7 |
| 20260505235537 | 59 | 244 | 3.5 | 6.1 | 0.00 | 0.16 | 0.13 | 84 | 1014.7 |
| 20260505235037 | 59 | 223 | 3.5 | 6.1 | 0.00 | 0.16 | 0.13 | 84 | 1014.8 |
| 20260505234605 | 58 | 232 | 2.6 | 6.1 | 0.00 | 0.16 | 0.13 | 83 | 1014.7 |
| 20260505234040 | 58 | 246 | 2.6 | 5.2 | 0.00 | 0.16 | 0.13 | 84 | 1014.7 |
| 20260505233541 | 58 | 246 | 2.6 | 5.2 | 0.00 | 0.16 | 0.13 | 83 | 1014.7 |
| 20260505233049 | 58 | 219 | 2.6 | 5.2 | 0.00 | 0.16 | 0.13 | 83 | 1014.9 |
| 20260505232537 | 58 | 231 | 1.7 | 5.2 | 0.00 | 0.16 | 0.13 | 83 | 1014.9 |
| 20260505232040 | 58 | 276 | 1.7 | 5.2 | 0.00 | 0.16 | 0.13 | 83 | 1014.9 |
| 20260505231549 | 59 | 245 | 2.6 | 6.1 | 0.00 | 0.16 | 0.13 | 82 | 1014.9 |
| 20260505231036 | 59 | 271 | 2.6 | 6.1 | 0.00 | 0.16 | 0.13 | 82 | 1014.9 |
| 20260505230537 | 59 | 252 | 1.7 | 6.1 | 0.00 | 0.16 | 0.13 | 83 | 1014.9 |
| 20260505230044 | 59 | 281 | 2.6 | 6.1 | 0.00 | 0.16 | 0.13 | 83 | 1014.9 |
| 20260505225538 | 59 | 236 | 2.6 | 6.1 | 0.00 | 0.16 | 0.13 | 83 | 1014.8 |
| 20260505225039 | 59 | 249 | 2.6 | 6.1 | 0.00 | 0.16 | 0.13 | 82 | 1014.7 |
| 20260505224546 | 59 | 223 | 2.6 | 7.0 | 0.00 | 0.16 | 0.13 | 81 | 1014.7 |
| 20260505224040 | 60 | 244 | 2.6 | 7.0 | 0.00 | 0.16 | 0.13 | 81 | 1014.8 |
| 20260505223537 | 60 | 240 | 3.5 | 5.2 | 0.00 | 0.16 | 0.13 | 80 | 1014.8 |
| 20260505223043 | 60 | 257 | 2.6 | 7.8 | 0.00 | 0.16 | 0.13 | 80 | 1014.9 |
| 20260505222540 | 60 | 225 | 1.7 | 7.8 | 0.00 | 0.16 | 0.13 | 81 | 1014.8 |
| 20260505222036 | 60 | 229 | 2.6 | 7.8 | 0.00 | 0.16 | 0.13 | 80 | 1014.8 |
| 20260505221544 | 59 | 204 | 2.6 | 6.1 | 0.00 | 0.16 | 0.13 | 81 | 1014.8 |
| 20260505221037 | 59 | 210 | 2.6 | 6.1 | 0.00 | 0.16 | 0.13 | 82 | 1014.9 |
| 20260505220539 | 59 | 216 | 2.6 | 6.1 | 0.00 | 0.16 | 0.13 | 82 | 1014.8 |
| 20260505220042 | 59 | 244 | 1.7 | 6.1 | 0.00 | 0.16 | 0.13 | 80 | 1014.9 |
| 20260505215538 | 59 | 238 | 2.6 | 7.0 | 0.00 | 0.16 | 0.13 | 79 | 1015.0 |
| 20260505215039 | 60 | 250 | 2.6 | 7.0 | 0.00 | 0.16 | 0.13 | 78 | 1015.0 |
| 20260505214604 | 60 | 288 | 1.7 | 6.1 | 0.00 | 0.16 | 0.13 | 79 | 1015.0 |
| 20260505214037 | 60 | 238 | 1.7 | 6.1 | 0.00 | 0.16 | 0.13 | 80 | 1015.0 |
| 20260505213539 | 59 | 246 | 1.7 | 6.1 | 0.00 | 0.16 | 0.13 | 82 | 1015.1 |
| 20260505213057 | 58 | 242 | 2.6 | 7.0 | 0.00 | 0.16 | 0.13 | 81 | 1015.2 |
| 20260505212537 | 59 | 252 | 2.6 | 7.0 | 0.00 | 0.16 | 0.13 | 82 | 1015.2 |
| 20260505212037 | 59 | 276 | 2.6 | 8.7 | 0.00 | 0.16 | 0.13 | 83 | 1015.3 |
| 20260505211543 | 59 | 250 | 1.7 | 8.7 | 0.00 | 0.16 | 0.13 | 83 | 1015.3 |
| 20260505211038 | 59 | 265 | 3.5 | 7.8 | 0.00 | 0.16 | 0.13 | 83 | 1015.3 |
| 20260505210536 | 59 | 316 | 2.6 | 7.8 | 0.00 | 0.16 | 0.13 | 82 | 1015.2 |
| 20260505210049 | 59 | 308 | 4.3 | 7.8 | 0.00 | 0.16 | 0.13 | 83 | 1015.2 |
| 20260505205539 | 59 | 271 | 1.7 | 7.0 | 0.00 | 0.16 | 0.13 | 82 | 1015.2 |
| 20260505205040 | 59 | 258 | 3.5 | 7.0 | 0.00 | 0.16 | 0.13 | 80 | 1015.1 |
| 20260505204554 | 60 | 246 | 2.6 | 7.8 | 0.00 | 0.16 | 0.13 | 80 | 1015.1 |
| 20260505204037 | 60 | 265 | 3.5 | 7.8 | 0.00 | 0.16 | 0.13 | 80 | 1015.1 |
| 20260505203537 | 60 | 263 | 1.7 | 7.8 | 0.00 | 0.16 | 0.13 | 80 | 1015.1 |
| 20260505203047 | 59 | 247 | 2.6 | 7.8 | 0.00 | 0.16 | 0.13 | 81 | 1015.0 |
| 20260505202537 | 59 | 254 | 3.5 | 7.8 | 0.00 | 0.16 | 0.13 | 81 | 1015.0 |
| 20260505202037 | 59 | 277 | 2.6 | 5.2 | 0.00 | 0.16 | 0.13 | 82 | 1015.1 |
| 20260505201550 | 58 | 248 | 2.6 | 6.1 | 0.00 | 0.16 | 0.13 | 81 | 1015.1 |
| 20260505201037 | 59 | 252 | 2.6 | 6.1 | 0.00 | 0.16 | 0.13 | 82 | 1015.1 |
| 20260505200537 | 59 | 278 | 2.6 | 7.8 | 0.00 | 0.16 | 0.13 | 83 | 1015.1 |
| 20260505200058 | 58 | 257 | 2.6 | 7.8 | 0.00 | 0.16 | 0.13 | 82 | 1015.1 |
| 20260505195537 | 59 | 238 | 3.5 | 7.0 | 0.00 | 0.16 | 0.13 | 82 | 1015.1 |
| 20260505195037 | 59 | 294 | 2.6 | 7.8 | 0.00 | 0.16 | 0.13 | 82 | 1015.1 |
| 20260505194549 | 59 | 217 | 3.5 | 7.8 | 0.00 | 0.16 | 0.13 | 83 | 1015.2 |
| 20260505194039 | 58 | 291 | 2.6 | 7.0 | 0.00 | 0.16 | 0.13 | 83 | 1015.1 |
| 20260505193538 | 58 | 286 | 2.6 | 7.0 | 0.00 | 0.16 | 0.13 | 83 | 1015.1 |
| 20260505193049 | 58 | 268 | 2.6 | 7.0 | 0.00 | 0.16 | 0.13 | 84 | 1015.1 |
| 20260505192536 | 58 | 248 | 2.6 | 7.0 | 0.00 | 0.16 | 0.13 | 85 | 1015.1 |
| 20260505192037 | 58 | 279 | 2.6 | 7.8 | 0.00 | 0.16 | 0.13 | 85 | 1015.1 |
| 20260505191543 | 58 | 250 | 2.6 | 7.8 | 0.00 | 0.16 | 0.13 | 86 | 1015.1 |
| 20260505191037 | 57 | 286 | 3.5 | 7.8 | 0.00 | 0.16 | 0.13 | 87 | 1015.1 |
| 20260505190537 | 57 | 281 | 2.6 | 6.1 | 0.00 | 0.16 | 0.13 | 87 | 1015.0 |
| 20260505190049 | 57 | 281 | 1.7 | 6.1 | 0.00 | 0.16 | 0.13 | 87 | 1014.9 |
| 20260505185539 | 57 | 286 | 1.7 | 7.0 | 0.00 | 0.16 | 0.13 | 87 | 1014.9 |
| 20260505185037 | 56 | 295 | 1.7 | 7.0 | 0.00 | 0.16 | 0.13 | 87 | 1014.7 |
| 20260505184547 | 56 | 262 | 1.7 | 5.2 | 0.00 | 0.16 | 0.13 | 87 | 1014.9 |
| 20260505184037 | 57 | 264 | 1.7 | 6.1 | 0.00 | 0.16 | 0.13 | 87 | 1015.0 |
| 20260505183536 | 57 | 281 | 1.7 | 7.0 | 0.00 | 0.16 | 0.13 | 87 | 1015.0 |
| 20260505183054 | 57 | 271 | 2.6 | 7.0 | 0.00 | 0.16 | 0.13 | 87 | 1015.1 |
| 20260505182537 | 58 | 319 | 1.7 | 5.2 | 0.00 | 0.16 | 0.13 | 88 | 1015.1 |
| 20260505182037 | 57 | 292 | 1.7 | 5.2 | 0.00 | 0.16 | 0.13 | 89 | 1015.0 |
| 20260505181547 | 57 | 294 | 1.7 | 3.5 | 0.00 | 0.16 | 0.13 | 89 | 1014.7 |
| 20260505181040 | 57 | 296 | 1.7 | 3.5 | 0.00 | 0.16 | 0.13 | 90 | 1014.7 |
| 20260505180541 | 57 | 275 | 0.9 | 3.5 | 0.00 | 0.16 | 0.13 | 90 | 1014.7 |
| 20260505180105 | 56 | 245 | 1.7 | 6.1 | 0.00 | 0.16 | 0.13 | 90 | 1014.6 |
| 20260505175537 | 56 | 278 | 1.7 | 6.1 | 0.00 | 0.16 | 0.13 | 91 | 1014.6 |
| 20260505175037 | 56 | 286 | 1.7 | 5.2 | 0.00 | 0.16 | 0.13 | 91 | 1014.5 |
| 20260505174600 | 56 | 292 | 2.6 | 5.2 | 0.00 | 0.16 | 0.13 | 91 | 1014.5 |
| 20260505174037 | 55 | 290 | 1.7 | 5.2 | 0.00 | 0.16 | 0.13 | 92 | 1014.5 |
| 20260505173536 | 55 | 294 | 1.7 | 5.2 | 0.00 | 0.16 | 0.13 | 92 | 1014.5 |
| 20260505173046 | 55 | 284 | 1.7 | 3.5 | 0.00 | 0.16 | 0.13 | 92 | 1014.5 |
| 20260505172536 | 55 | 305 | 1.7 | 5.2 | 0.00 | 0.16 | 0.13 | 93 | 1014.5 |
| 20260505172036 | 55 | 306 | 0.9 | 5.2 | 0.00 | 0.16 | 0.13 | 93 | 1014.6 |
| 20260505171552 | 55 | 292 | 0.9 | 3.5 | 0.00 | 0.16 | 0.13 | 93 | 1014.4 |
| 20260505171041 | 55 | 294 | 1.7 | 5.2 | 0.00 | 0.16 | 0.13 | 93 | 1014.5 |
| 20260505170537 | 55 | 313 | 1.7 | 5.2 | 0.00 | 0.16 | 0.13 | 93 | 1014.4 |
| 20260505170044 | 55 | 323 | 1.7 | 5.2 | 0.00 | 0.16 | 0.13 | 93 | 1014.4 |
| 20260505165536 | 55 | 298 | 0.9 | 3.5 | 0.00 | 0.16 | 0.13 | 93 | 1014.5 |
| 20260505165037 | 55 | 294 | 0.0 | 2.6 | 0.00 | 0.16 | 0.13 | 93 | 1014.5 |
| 20260505164548 | 55 | 294 | 0.9 | 4.3 | 0.00 | 0.16 | 0.13 | 93 | 1014.5 |
| 20260505164037 | 55 | 313 | 0.9 | 5.2 | 0.00 | 0.16 | 0.13 | 93 | 1014.5 |
| 20260505163537 | 54 | 286 | 1.7 | 5.2 | 0.00 | 0.16 | 0.13 | 93 | 1014.4 |
| 20260505163052 | 54 | 255 | 1.7 | 4.3 | 0.01 | 0.16 | 0.13 | 93 | 1014.4 |
| 20260505162538 | 54 | 254 | 0.9 | 3.5 | 0.02 | 0.16 | 0.13 | 93 | 1014.4 |
| 20260505162037 | 54 | 269 | 0.9 | 3.5 | 0.02 | 0.16 | 0.13 | 93 | 1014.4 |
| 20260505161545 | 54 | 240 | 0.9 | 2.6 | 0.02 | 0.16 | 0.13 | 93 | 1014.3 |
| 20260505161037 | 54 | 240 | 0.9 | 2.6 | 0.02 | 0.16 | 0.13 | 93 | 1014.2 |
| 20260505160537 | 54 | 240 | 0.9 | 2.6 | 0.02 | 0.16 | 0.13 | 93 | 1014.2 |
| 20260505153043 | 53 | 286 | 1.7 | 4.3 | 0.01 | 0.15 | 0.12 | 91 | 1014.0 |
| 20260505152537 | 53 | 205 | 2.6 | 4.3 | 0.00 | 0.14 | 0.11 | 91 | 1014.0 |
| 20260505152036 | 53 | 229 | 1.7 | 4.3 | 0.00 | 0.14 | 0.11 | 91 | 1013.9 |
| 20260505151549 | 53 | 214 | 2.6 | 4.3 | 0.00 | 0.14 | 0.11 | 91 | 1013.8 |
| 20260505151037 | 53 | 232 | 1.7 | 4.3 | 0.00 | 0.14 | 0.11 | 91 | 1013.8 |
| 20260505150537 | 53 | 214 | 1.7 | 4.3 | 0.00 | 0.14 | 0.11 | 91 | 1013.6 |
| 20260505140538 | 53 | 223 | 0.9 | 2.6 | 0.00 | 0.14 | 0.11 | 91 | 1013.5 |
| 20260505125040 | 52 | 240 | 0.9 | 3.5 | 0.00 | 0.14 | 0.11 | 90 | 1013.2 |
| 20260505124547 | 52 | 246 | 0.9 | 3.5 | 0.00 | 0.14 | 0.11 | 90 | 1013.2 |
| 20260505124042 | 52 | 244 | 1.7 | 3.5 | 0.00 | 0.14 | 0.11 | 90 | 1013.2 |
| 20260505123538 | 52 | 242 | 1.7 | 3.5 | 0.00 | 0.14 | 0.11 | 90 | 1013.1 |
| 20260505123100 | 52 | 261 | 1.7 | 3.5 | 0.00 | 0.14 | 0.11 | 90 | 1013.1 |
| 20260505122539 | 52 | 238 | 0.9 | 2.6 | 0.00 | 0.14 | 0.11 | 90 | 1013.1 |
| 20260505122040 | 52 | 238 | 0.9 | 2.6 | 0.00 | 0.14 | 0.11 | 91 | 1013.1 |
| 20260505121549 | 52 | 204 | 0.0 | 1.7 | 0.00 | 0.14 | 0.11 | 91 | 1013.0 |
| 20260505121039 | 52 | 204 | 0.9 | 2.6 | 0.00 | 0.14 | 0.11 | 90 | 1013.0 |
| 20260505120537 | 52 | 0 | 0.0 | 2.6 | 0.00 | 0.14 | 0.11 | 90 | 1013.0 |
| 20260505120053 | 52 | 204 | 0.9 | 3.5 | 0.00 | 0.14 | 0.11 | 90 | 1013.1 |
| 20260505115538 | 51 | 0 | 0.9 | 3.5 | 0.00 | 0.14 | 0.11 | 90 | 1013.1 |
| 20260505115039 | 51 | 204 | 1.7 | 3.5 | 0.00 | 0.14 | 0.11 | 90 | 1013.0 |
| 20260505114544 | 51 | 207 | 1.7 | 2.6 | 0.00 | 0.14 | 0.11 | 90 | 1013.1 |
| 20260505114042 | 51 | 232 | 0.9 | 1.7 | 0.00 | 0.14 | 0.11 | 90 | 1013.2 |
| 20260505113542 | 51 | 232 | 0.9 | 1.7 | 0.00 | 0.14 | 0.11 | 90 | 1013.3 |
| 20260505113044 | 51 | 260 | 0.0 | 1.7 | 0.00 | 0.14 | 0.11 | 90 | 1013.3 |
| 20260505112539 | 51 | 260 | 0.0 | 1.7 | 0.00 | 0.14 | 0.11 | 90 | 1013.4 |
| 20260505112038 | 51 | 260 | 0.9 | 1.7 | 0.00 | 0.14 | 0.11 | 90 | 1013.2 |
| 20260505111544 | 51 | 260 | 0.0 | 1.7 | 0.00 | 0.14 | 0.11 | 91 | 1013.2 |
| 20260505111039 | 51 | 0 | 0.9 | 3.5 | 0.00 | 0.14 | 0.11 | 91 | 1013.2 |
| 20260505110538 | 51 | 260 | 0.0 | 4.3 | 0.00 | 0.14 | 0.11 | 91 | 1013.2 |
| 20260505110158 | 51 | 300 | 0.9 | 4.3 | 0.00 | 0.14 | 0.11 | 91 | 1013.3 |
| 20260505102037 | 51 | 284 | 0.9 | 4.3 | 0.01 | 0.14 | 0.11 | 92 | 1013.2 |
| 20260505101548 | 51 | 263 | 0.9 | 3.5 | 0.01 | 0.14 | 0.11 | 92 | 1013.2 |
| 20260505101038 | 51 | 262 | 1.7 | 3.5 | 0.01 | 0.14 | 0.11 | 92 | 1013.4 |
| 20260505100537 | 51 | 280 | 0.9 | 3.5 | 0.01 | 0.14 | 0.11 | 92 | 1013.4 |
| 20260505100053 | 52 | 300 | 0.9 | 2.6 | 0.01 | 0.14 | 0.11 | 92 | 1013.4 |
| 20260505095538 | 52 | 275 | 0.9 | 2.6 | 0.01 | 0.14 | 0.11 | 92 | 1013.5 |
| 20260505095038 | 52 | 286 | 0.9 | 2.6 | 0.01 | 0.14 | 0.11 | 93 | 1013.4 |
| 20260505094545 | 52 | 0 | 0.9 | 3.5 | 0.02 | 0.14 | 0.11 | 93 | 1013.5 |
| 20260505094038 | 52 | 0 | 0.0 | 3.5 | 0.02 | 0.14 | 0.11 | 93 | 1013.5 |
| 20260505093538 | 52 | 228 | 0.9 | 4.3 | 0.03 | 0.14 | 0.11 | 93 | 1013.5 |
| 20260505093051 | 52 | 252 | 1.7 | 4.3 | 0.04 | 0.14 | 0.11 | 93 | 1013.6 |
| 20260505092538 | 52 | 0 | 0.0 | 1.7 | 0.04 | 0.13 | 0.10 | 93 | 1013.7 |
| 20260505092039 | 51 | 195 | 0.9 | 1.7 | 0.04 | 0.13 | 0.10 | 92 | 1013.8 |
| 20260505091606 | 51 | 195 | 0.0 | 2.6 | 0.04 | 0.13 | 0.10 | 92 | 1013.8 |
| 20260505091037 | 51 | 195 | 0.9 | 2.6 | 0.05 | 0.13 | 0.10 | 92 | 1013.9 |
| 20260505090538 | 51 | 195 | 1.7 | 2.6 | 0.06 | 0.13 | 0.10 | 92 | 1013.9 |
| 20260505090047 | 51 | 195 | 0.0 | 2.6 | 0.07 | 0.13 | 0.10 | 92 | 1013.9 |
| 20260505085541 | 51 | 0 | 0.9 | 2.6 | 0.08 | 0.13 | 0.10 | 92 | 1014.0 |
| 20260505085039 | 51 | 195 | 0.0 | 1.7 | 0.09 | 0.13 | 0.10 | 92 | 1013.9 |